Location: Haliburton Scout Reserve
(45.0900°N, 78.3200°W)
Time: 07:53:28
(UTC-04:00)

AO-92 - Visible Passes

Search period start: 22 May 2022 00:00
Search period end: 01 June 2022 00:00
Orbit: 473 x 485 km, 97.4° (Epoch: 21 May)

Date Brightness Start Highest point End Pass type
(mag) Time Alt. Az. Time Alt. Az. Time Alt. Az.
22 May ? 22:33:20 23° E 22:34:25 28° ENE 22:37:27 10° N visible
23 May ? 00:07:35 19° W 00:07:45 19° W 00:10:24 10° NW visible
23 May ? 22:06:56 12° E 22:08:31 15° ENE 22:10:33 10° NNE visible
23 May ? 23:41:10 38° WSW 23:41:31 39° W 23:44:53 10° NNW visible
24 May ? 23:14:44 59° S 23:15:21 89° W 23:18:54 10° NNW visible
25 May ? 22:48:15 33° ESE 22:49:14 41° ENE 22:52:35 10° N visible
26 May ? 00:22:29 13° W 00:22:47 13° W 00:24:32 10° WNW visible
26 May ? 22:21:45 16° E 22:23:12 21° ENE 22:25:54 10° NNE visible
26 May ? 23:55:59 25° WSW 23:56:23 26° W 23:59:26 10° NW visible
27 May ? 21:56:10 10° E 21:57:13 11° ENE 21:58:16 10° NE visible
27 May ? 23:29:27 48° SW 23:30:04 56° W 23:33:34 10° NNW visible
28 May ? 23:02:53 44° SE 23:03:49 64° ENE 23:07:19 10° N visible
29 May ? 22:36:17 23° ESE 22:37:37 30° ENE 22:40:45 10° N visible
30 May ? 00:10:31 17° WSW 00:11:00 18° W 00:13:29 10° NW visible
30 May ? 22:09:40 11° E 22:11:29 16° ENE 22:13:40 10° NNE visible
30 May ? 23:43:53 33° WSW 23:44:31 36° W 23:47:50 10° NNW visible
31 May ? 23:17:14 48° S 23:18:07 82° WSW 23:21:40 10° NNW visible
